Temperature
12 12 12 13 13 13 13 13 14 14 13 14 14 14 14 14 15 15 15 15 15 16 16 16 16 16 16 16 16 16 16 16 16 16 16 16 16 16
12 12 12 12 13 13 13 13 13 13 13 13 14 14 14 14 14 15 15 15 15 15 15 15 15 15 15 16 16 16 16 16 16 16 16 16 16 16
12 12 12 12 12 13 13 13 13 13 13 13 13 13 14 14 14 14 14 15 15 15 15 15 15 15 15 15 15 15 15 16 16 16 16 16 16 16
12 12 12 12 12 12 12 13 13 13 13 13 13 13 13 13 14 14 14 14 14 14 14 15 15 15 15 15 15 15 15 15 15 15 15 15 15 15
12 12 12 12 12 12 12 12 12 13 13 13 13 13 13 13 13 13 13 14 14 14 14 14 14 14 15 15 15 15 15 15 15 15 15 15 15 15
12 12 12 12 12 12 12 12 12 12 12 12 13 13 13 13 13 13 13 13 13 14 14 14 14 14 14 14 14 14 14 14 15 15 15 15 15 15
13 13 13 12 12 12 12 12 12 12 12 12 12 12 12 12 12 13 13 13 13 13 13 13 13 13 14 14 14 14 14 14 14 14 14 14 14 14
13 13 13 13 12 12 12 12 12 12 12 12 12 12 12 12 12 12 12 13 13 13 13 13 13 13 13 13 13 13 14 14 14 14 14 14 14 14
13 13 13 13 13 12 12 12 12 12 12 12 12 12 12 12 12 12 12 12 12 12 12 13 13 13 13 13 13 13 13 13 13 13 13 13 13 13
13 13 13 13 13 13 12 12 12 12 12 12 12 12 12 12 12 12 12 12 12 12 12 12 12 12 12 12 13 13 13 13 13 13 13 13 13 13
13 13 13 13 13 12 12 12 12 12 12 12 12 12 12 12 12 12 11 11 11 12 12 12 12 12 12 12 12 12 12 12 12 12 12 13 13 13
13 13 13 13 13 12 12 12 12 12 12 12 12 12 12 11 11 11 11 11 11 11 11 11 11 11 11 11 11 11 11 12 12 12 12 12 12 12
13 13 13 13 12 12 12 12 12 12 12 12 11 11 11 11 11 11 11 11 11 11 11 10 11 11 11 11 11 11 11 11 11 11 11 12 12 12
13 13 13 13 12 12 12 12 12 12 12 11 11 11 11 11 11 11 11 11 10 10 10 10 10 10 10 10 10 11 11 10 11 11 11 11 11 11
13 13 13 12 12 12 12 12 12 11 11 11 11 11 11 11 10 10 10 10 10 10 10 10 10 10 10 10 10 10 10 10 10 10 10 10 10 10
13 13 12 12 12 12 12 11 11 11 11 11 11 11 10 10 10 10 10 10 9 9 9 9 9 9 9 9 9 9 9 9 9 9 9 9 9 9
13 12 12 12 11 11 11 11 11 11 11 11 10 10 10 10 10 9 9 9 9 9 9 9 9 9 9 8 8 8 8 8 8 8 8 9 9 9
13 12 12 12 11 11 11 11 10 10 10 10 10 10 10 9 9 9 9 9 9 8 8 8 8 8 8 8 8 8 7 7 8 8 7 8 8 8
12 12 12 12 11 11 11 10 10 10 10 10 9 9 9 9 9 8 8 8 8 8 8 8 8 8 8 8 7 7 7 7 7 7 7 7 7 8
12 12 12 12 11 11 10 10 10 10 9 9 9 9 9 8 8 8 8 8 7 7 7 7 7 7 6 6 6 6 6 6 6 6 6 6 7 7
13 13 12 12 11 11 10 10 10 9 9 9 8 8 8 8 8 7 7 7 7 7 6 6 6 6 6 5 5 6 5 5 5 5 5 5 5 6
13 13 12 12 11 10 10 10 9 9 8 8 8 8 8 7 7 7 7 6 6 6 6 6 5 5 5 5 5 5 5 5 5 4 4 3 3 3
13 12 12 12 11 10 10 9 9 9 8 8 8 7 7 7 7 6 6 6 6 5 5 5 5 5 4 4 4 4 4 4 4 4 4 3 3 2
Wind_Speed
1 1 1 1 1 0 1 2 3 1 1 2 2 2 3 3 3 2 2 1 1 1 2 3 4 6 7 7 8 9 10 10 11 13 13 13 14 14
1 1 1 1 1 1 1 1 2 3 1 1 1 2 2 2 3 2 1 1 1 1 1 2 3 5 6 7 7 8 8 9 10 11 12 13 13 14
1 0 1 1 1 1 1 1 1 2 2 1 1 1 1 2 2 3 2 1 1 0 0 1 2 3 4 5 6 6 7 7 8 9 10 12 13 13
1 1 1 0 0 1 0 0 0 1 2 1 1 2 2 1 1 1 2 2 2 1 1 2 2 3 4 5 6 6 7 7 8 8 9 10 11 12
2 2 2 1 1 1 1 1 0 1 1 2 0 1 2 1 2 2 2 2 3 2 2 1 2 3 4 5 6 7 7 7 7 8 8 8 9 10
3 3 3 3 3 3 2 1 1 2 2 2 0 1 1 1 1 1 2 2 2 3 3 3 3 3 3 3 4 5 6 7 7 7 7 8 8 9
3 3 4 5 5 4 3 3 3 2 2 1 1 0 1 1 0 0 0 2 2 2 2 2 2 2 2 3 3 3 5 5 6 6 6 7 8 9
5 4 4 5 5 6 6 6 6 4 4 3 2 2 2 2 1 1 1 1 1 2 1 2 1 2 2 2 3 3 3 4 4 4 5 6 6 7
6 5 4 4 4 3 4 5 4 5 6 5 4 4 3 4 3 2 2 1 1 2 1 2 2 2 2 4 4 2 1 1 1 3 4 5 5 6
6 6 6 5 4 5 4 3 2 3 4 4 4 4 4 4 4 3 2 1 1 1 0 1 2 2 2 4 5 4 3 3 2 3 3 4 5 6
6 6 7 6 8 8 6 5 3 2 3 5 5 3 3 3 4 3 2 1 1 1 0 0 1 2 2 2 3 5 6 5 5 4 4 4 4 5
5 5 9 9 9 9 7 6 6 4 3 2 2 1 1 1 3 3 3 2 1 1 1 0 1 1 2 2 2 4 5 6 7 7 6 5 5 3
6 5 6 10 10 10 9 7 8 5 4 4 3 2 1 1 1 1 2 3 2 2 1 1 0 0 1 2 2 2 3 3 4 5 7 7 6 3
7 6 6 9 9 9 7 7 8 6 4 4 3 2 1 1 1 1 2 2 2 1 0 1 1 1 1 1 2 2 2 3 3 3 4 7 6 6
7 8 9 9 7 5 7 8 7 5 5 4 3 3 2 1 1 2 3 3 3 4 3 2 1 1 1 1 2 2 2 2 3 3 4 4 3 4
6 7 8 8 6 5 4 4 4 5 5 5 4 3 2 2 2 2 2 1 2 2 4 5 3 1 1 1 1 2 2 2 4 4 5 4 4 4
8 4 4 4 4 3 3 3 3 4 4 4 4 4 3 3 2 2 2 2 2 1 2 3 4 3 1 0 1 1 2 2 3 4 4 5 4 4
10 6 7 7 7 7 6 5 4 5 5 5 5 5 4 4 3 2 2 2 2 1 1 2 3 2 2 3 2 1 2 2 4 5 4 4 5 5
8 8 8 9 8 8 7 6 5 5 5 6 6 5 5 4 4 3 3 3 2 1 1 1 2 2 1 2 3 3 2 3 5 5 4 4 6 7
8 8 9 9 8 8 8 6 6 6 5 6 6 5 5 5 4 4 3 3 2 1 1 1 1 1 1 2 2 3 4 3 4 5 6 5 6 7
10 9 9 9 9 9 8 8 8 7 7 7 6 6 6 5 5 4 4 4 3 2 1 1 2 3 1 0 1 3 3 5 5 5 6 6 6 6
11 11 10 10 10 9 9 9 8 8 8 7 7 6 6 6 6 6 5 4 2 2 1 1 2 1 1 0 3 4 5 6 7 9 8 7 5 5
11 11 10 10 10 10 10 10 10 9 8 8 8 7 7 6 5 5 5 4 3 2 1 0 1 1 1 2 3 4 6 7 6 6 6 10 11 13
Wind_Direction
14 27 32 355 17 29 146 158 148 126 350 327 343 341 356 22 32 64 49 28 5 275 250 237 234 223 216 217 223 229 232 232 230 229 232 234 235 234
337 38 34 2 17 29 76 126 149 154 172 278 307 316 337 21 33 46 33 25 358 312 273 260 252 240 229 225 228 231 231 232 235 235 235 236 239 239
326 12 337 10 33 22 57 84 114 141 158 285 321 328 4 21 13 22 31 52 27 136 241 265 259 254 238 229 230 233 235 236 240 243 243 241 242 242
267 261 279 277 39 12 67 102 141 155 156 172 353 360 6 353 11 18 5 20 10 342 303 270 270 264 247 238 235 237 239 240 241 243 247 247 245 245
235 232 246 202 228 236 216 196 180 112 125 150 25 1 358 355 26 21 10 1 358 4 13 352 309 277 254 243 240 240 240 239 240 242 245 247 250 251
231 226 225 215 219 214 210 208 161 113 105 116 113 3 350 342 46 28 6 6 350 356 10 360 348 318 282 259 249 247 245 242 241 242 246 249 253 254
241 237 235 231 225 210 197 190 165 147 137 143 188 334 323 4 16 338 351 340 340 355 346 340 340 335 327 305 281 270 257 249 246 249 252 254 257 259
236 247 249 245 243 232 219 197 183 176 178 175 193 201 228 223 201 175 157 42 328 337 357 320 336 315 323 320 303 294 277 259 254 259 260 262 265 269
225 234 242 230 222 215 221 207 206 209 194 177 189 212 212 207 180 180 185 185 237 294 8 316 331 316 318 338 343 347 355 332 290 279 273 272 271 270
222 221 226 236 222 201 190 190 212 229 213 196 198 214 216 202 186 178 175 183 289 306 170 278 319 309 320 341 7 32 39 40 16 335 310 302 295 285
228 221 218 226 233 206 183 191 209 241 223 198 199 202 201 193 171 142 141 133 320 322 26 214 303 310 315 333 5 28 32 27 18 2 342 326 308 300
227 227 223 221 224 201 187 188 201 215 180 154 132 84 73 110 166 169 171 169 184 254 296 199 296 344 332 326 353 7 16 13 9 4 357 344 333 323
217 221 223 220 213 204 193 195 206 189 165 158 142 115 84 77 85 129 158 170 175 213 240 175 194 342 285 310 327 352 8 359 357 355 356 353 349 340
211 213 212 204 200 196 194 198 193 170 148 145 142 143 139 130 89 90 108 116 127 156 166 142 173 187 210 279 294 325 343 359 2 350 349 350 350 344
206 200 194 189 185 186 189 186 176 162 155 159 171 179 177 160 114 87 69 81 79 65 49 49 140 197 195 229 276 312 328 343 1 358 348 344 341 341
191 184 175 171 162 158 161 169 169 170 170 170 169 156 133 120 104 102 101 87 81 30 22 31 34 93 192 249 258 307 326 326 343 346 343 335 334 341
160 144 148 154 165 162 154 150 153 156 159 154 150 147 141 130 111 95 106 94 101 63 357 359 7 27 47 306 332 336 347 345 334 336 339 331 327 334
157 170 181 184 184 184 179 174 171 171 168 160 157 156 154 147 133 107 99 111 116 93 28 352 357 16 29 35 24 344 359 343 336 337 336 325 318 327
174 185 187 189 189 185 182 180 182 179 166 161 160 159 152 146 137 131 123 115 115 104 44 14 23 56 25 325 342 29 7 334 331 330 328 317 307 312
192 190 192 189 186 184 183 180 173 163 161 162 159 157 155 149 145 145 144 141 139 126 78 35 33 39 191 257 291 325 354 338 333 324 317 310 297 295
197 195 191 187 184 182 179 175 170 169 166 163 162 159 157 150 150 151 149 145 139 142 155 263 284 308 272 319 304 306 313 323 320 308 310 314 315 316
194 193 191 186 182 178 174 170 167 166 165 163 163 161 158 155 157 157 157 156 160 166 181 269 328 355 45 279 290 298 306 312 317 318 309 293 294 306
194 190 186 182 179 174 171 171 169 170 169 165 162 161 158 156 155 156 156 155 152 157 164 271 343 1 312 279 288 299 306 312 317 319 313 309 299 290
Height
1500 1500 1499 1499 1499 1499 1499 1500 1501 1501 1502 1503 1503 1504 1505 1506 1508 1509 1510 1512 1514 1515 1517 1519 1520 1522 1524 1526 1527 1529 1531 1533 1535 1536 1538 1539 1541 1543
1500 1500 1499 1499 1499 1499 1499 1499 1500 1501 1501 1502 1502 1503 1504 1505 1506 1507 1508 1510 1511 1513 1514 1516 1517 1519 1520 1522 1524 1526 1527 1529 1530 1532 1533 1535 1536 1538
1500 1499 1499 1499 1499 1498 1498 1498 1499 1500 1500 1501 1502 1502 1503 1504 1505 1506 1507 1508 1509 1510 1511 1513 1514 1515 1517 1518 1520 1522 1523 1525 1526 1527 1529 1530 1531 1533
1499 1499 1499 1498 1498 1498 1498 1498 1498 1498 1499 1499 1500 1501 1501 1502 1503 1504 1504 1505 1506 1507 1508 1510 1511 1512 1513 1515 1516 1518 1519 1520 1522 1523 1524 1525 1526 1527
1499 1498 1498 1498 1498 1497 1497 1497 1497 1497 1498 1498 1499 1499 1500 1501 1501 1502 1503 1504 1504 1505 1506 1507 1507 1508 1510 1511 1512 1513 1515 1516 1517 1518 1519 1520 1521 1522
1498 1498 1497 1497 1497 1497 1496 1496 1496 1496 1497 1497 1497 1498 1499 1499 1499 1500 1501 1502 1502 1503 1503 1504 1504 1505 1506 1507 1508 1509 1510 1511 1512 1513 1514 1515 1515 1516
1497 1497 1496 1496 1496 1496 1496 1495 1495 1495 1496 1496 1496 1497 1497 1497 1498 1499 1499 1499 1500 1500 1501 1502 1502 1502 1503 1504 1504 1505 1506 1506 1507 1508 1509 1509 1510 1511
1495 1495 1495 1495 1495 1495 1495 1494 1494 1495 1495 1495 1495 1495 1495 1496 1496 1497 1497 1497 1498 1499 1499 1499 1500 1500 1500 1500 1501 1501 1502 1502 1502 1503 1504 1504 1505 1505
1493 1493 1493 1493 1493 1493 1493 1493 1493 1493 1493 1494 1493 1494 1494 1494 1495 1495 1495 1495 1496 1496 1496 1496 1497 1497 1497 1497 1497 1498 1498 1498 1498 1499 1499 1499 1500 1500
1489 1489 1490 1490 1490 1491 1491 1491 1491 1491 1491 1492 1492 1492 1492 1493 1493 1493 1493 1494 1494 1494 1494 1495 1495 1495 1495 1494 1494 1494 1494 1494 1495 1495 1495 1495 1495 1495
1485 1485 1486 1486 1487 1487 1488 1488 1489 1489 1489 1490 1490 1490 1490 1490 1491 1491 1491 1492 1492 1492 1492 1492 1492 1492 1492 1492 1492 1491 1491 1491 1491 1491 1490 1490 1490 1490
1480 1481 1481 1482 1483 1483 1484 1484 1485 1486 1487 1487 1487 1488 1488 1488 1488 1489 1489 1489 1489 1490 1490 1490 1490 1490 1489 1489 1489 1489 1488 1488 1487 1487 1486 1486 1485 1485
1475 1475 1476 1477 1478 1479 1480 1480 1481 1483 1483 1484 1485 1485 1485 1486 1486 1487 1487 1487 1487 1487 1488 1488 1488 1487 1487 1487 1487 1486 1485 1484 1483 1482 1482 1481 1480 1480
1469 1470 1472 1473 1473 1474 1475 1476 1478 1479 1479 1480 1481 1482 1483 1483 1484 1484 1484 1484 1485 1485 1485 1485 1485 1485 1484 1484 1483 1483 1482 1481 1480 1479 1478 1477 1476 1476
1463 1465 1466 1467 1468 1469 1470 1472 1473 1474 1475 1476 1478 1479 1480 1480 1481 1481 1481 1482 1482 1482 1482 1482 1482 1482 1481 1481 1480 1479 1478 1477 1476 1475 1474 1473 1472 1471
1457 1459 1461 1462 1463 1464 1465 1467 1468 1470 1471 1473 1474 1475 1476 1477 1478 1478 1479 1479 1479 1479 1479 1479 1479 1479 1478 1477 1477 1475 1475 1474 1472 1471 1470 1469 1468 1467
1451 1453 1454 1456 1457 1458 1460 1462 1464 1465 1467 1468 1470 1471 1473 1474 1475 1475 1476 1476 1476 1476 1476 1476 1476 1476 1475 1475 1473 1472 1471 1470 1469 1467 1466 1465 1464 1463
1444 1445 1447 1449 1451 1453 1455 1457 1459 1460 1462 1464 1466 1468 1469 1470 1471 1472 1472 1473 1473 1473 1473 1473 1473 1472 1472 1471 1471 1469 1468 1467 1465 1464 1462 1460 1458 1458
1436 1437 1440 1442 1444 1447 1449 1451 1453 1456 1458 1460 1462 1463 1465 1466 1467 1468 1469 1469 1469 1470 1470 1469 1469 1468 1468 1467 1466 1466 1464 1462 1461 1459 1458 1456 1453 1452
1427 1429 1432 1435 1438 1440 1443 1446 1448 1451 1453 1455 1457 1459 1460 1462 1463 1464 1465 1465 1466 1466 1466 1466 1466 1465 1464 1464 1462 1461 1460 1458 1456 1454 1452 1450 1448 1447
1418 1422 1425 1428 1431 1434 1437 1440 1443 1445 1448 1450 1452 1454 1456 1457 1459 1460 1461 1462 1462 1462 1462 1462 1462 1461 1460 1459 1458 1457 1456 1455 1452 1450 1447 1444 1441 1439
1410 1414 1417 1421 1424 1427 1431 1434 1437 1439 1442 1445 1447 1449 1451 1453 1454 1456 1457 1457 1458 1458 1458 1458 1458 1457 1456 1455 1453 1452 1450 1450 1448 1446 1444 1441 1438 1434
1402 1406 1410 1413 1417 1420 1424 1427 1430 1433 1436 1439 1442 1444 1446 1448 1450 1451 1452 1453 1453 1454 1454 1454 1453 1453 1452 1451 1449 1447 1446 1444 1442 1440 1439 1437 1435 1432